DW8248 Weather Reports


time (UTC)temp
C
wind
direction
speed
KPH
gust
KPH
rain 1hr
cm
rain 24hr
cm
rain mn
cm
humidity
%
barometer
mb
20180116165348 19 32 12.9 22.5 0.00 0.00 0.00 69 1025.9
20180116164317 19 5 12.9 22.5 0.00 0.00 0.00 70 1026.3
20180116163333 19 0 12.9 20.9 0.00 0.00 0.00 69 1026.5
20180116162350 19 9 14.5 20.9 0.00 0.00 0.00 70 1026.5
20180116161317 19 340 12.9 19.3 0.00 0.00 0.00 71 1026.6
20180116160324 19 351 11.3 19.3 0.00 0.00 0.00 70 1026.8
20180116155304 19 0 9.7 19.3 0.00 0.00 0.00 70 1026.8
20180116154254 18 0 11.3 19.3 0.00 0.00 0.00 70 1027.1
20180116153304 18 9 11.3 16.1 0.00 0.00 0.00 71 1027.0
20180116152313 18 355 9.7 17.7 0.00 0.00 0.00 73 1027.0
20180116151305 18 323 11.3 17.7 0.00 0.00 0.00 77 1026.9
20180116150247 16 347 11.3 16.1 0.00 0.00 0.00 84 1026.7
20180116145231 16 320 11.3 16.1 0.00 0.00 0.00 84 1026.6
20180116144156 16 327 11.3 14.5 0.00 0.00 0.00 84 1026.7
20180116143138 16 323 11.3 14.5 0.00 0.00 0.00 84 1026.6
20180116142141 15 321 11.3 14.5 0.00 0.00 0.00 86 1026.5
20180116141133 15 327 12.9 16.1 0.00 0.00 0.00 85 1026.4
20180116140111 15 324 12.9 16.1 0.00 0.00 0.00 85 1026.2
20180116135122 16 324 11.3 16.1 0.00 0.00 0.00 83 1026.2
20180116134050 16 323 12.9 16.1 0.00 0.00 0.00 84 1026.1
20180116133109 16 326 9.7 14.5 0.00 0.00 0.00 86 1026.1
20180116132050 15 336 6.4 12.9 0.00 0.00 0.00 89 1026.0
20180116131051 14 350 8.0 12.9 0.00 0.00 0.00 91 1025.8
20180116130051 13 333 9.7 14.5 0.00 0.00 0.00 91 1025.9
20180116125104 13 329 9.7 14.5 0.00 0.00 0.00 91 1025.8
20180116124046 13 323 4.8 12.9 0.00 0.00 0.00 90 1025.7
20180116123056 13 338 9.7 14.5 0.00 0.00 0.00 89 1025.7
20180116122022 13 355 6.4 14.5 0.00 0.00 0.00 88 1025.6
20180116121003 14 328 8.0 14.5 0.00 0.00 0.00 87 1025.5
20180116115935 15 337 6.4 8.0 0.00 0.00 0.00 85 1025.5
20180116114954 15 324 4.8 9.7 0.00 0.00 0.00 84 1025.2
20180116113928 15 323 3.2 9.7 0.00 0.00 0.00 82 1025.3
20180116112900 15 44 6.4 11.3 0.00 0.00 0.00 83 1025.1
20180116111844 15 318 6.4 11.3 0.00 0.00 0.00 78 1025.0
20180116110833 17 0 4.8 12.9 0.00 0.00 0.00 74 1025.0
20180116105842 17 56 6.4 14.5 0.00 0.00 0.00 73 1025.0
20180116104852 17 76 6.4 14.5 0.00 0.00 0.00 73 1024.8
20180116103902 17 66 8.0 17.7 0.00 0.00 0.00 72 1024.7
20180116102832 17 42 6.4 17.7 0.00 0.00 0.00 73 1024.6
20180116101844 17 53 6.4 17.7 0.00 0.00 0.00 73 1024.6
20180116100854 17 42 8.0 17.7 0.00 0.00 0.00 72 1024.7
20180116095852 17 49 6.4 16.1 0.00 0.00 0.00 72 1024.6
20180116094816 17 53 6.4 14.5 0.00 0.00 0.00 71 1024.7
20180116093748 17 19 6.4 16.1 0.00 0.00 0.00 73 1024.5
20180116092755 17 67 8.0 19.3 0.00 0.00 0.00 72 1024.5
20180116091728 17 31 8.0 19.3 0.00 0.00 0.00 72 1024.4
20180116090734 17 34 6.4 19.3 0.00 0.00 0.00 73 1024.5
20180116085700 17 29 8.0 19.3 0.00 0.00 0.00 72 1024.4
20180116084712 17 66 6.4 16.1 0.00 0.00 0.00 70 1024.3
20180116083653 17 43 8.0 17.7 0.00 0.00 0.00 72 1024.3
20180116082713 17 80 8.0 22.5 0.00 0.00 0.00 70 1024.2
20180116081655 17 101 9.7 24.1 0.00 0.00 0.00 71 1024.2
20180116080659 17 49 8.0 24.1 0.00 0.00 0.00 73 1024.0
20180116075631 17 68 9.7 20.9 0.00 0.00 0.00 72 1024.1
20180116074556 17 49 9.7 17.7 0.00 0.00 0.00 72 1024.1
20180116073558 17 53 11.3 20.9 0.00 0.00 0.00 72 1024.2
20180116072605 17 60 9.7 22.5 0.00 0.00 0.00 73 1024.3
20180116071603 17 49 11.3 22.5 0.00 0.00 0.00 74 1024.4
20180116070611 17 45 11.3 22.5 0.00 0.00 0.00 74 1024.4
20180116065605 17 62 9.7 25.7 0.00 0.00 0.00 72 1024.5
20180116064603 17 32 11.3 25.7 0.00 0.00 0.00 71 1024.6
20180116063538 17 39 9.7 20.9 0.00 0.00 0.00 72 1024.7
20180116062523 17 82 9.7 27.4 0.00 0.00 0.00 73 1024.7
20180116061501 17 46 11.3 27.4 0.00 0.00 0.00 73 1024.7
20180116060510 17 77 9.7 24.1 0.00 0.00 0.00 74 1024.7
20180116055526 17 24 8.0 24.1 0.00 0.00 0.00 73 1024.8
20180116054502 17 63 9.7 22.5 0.00 0.00 0.00 73 1024.9
20180116053451 17 52 8.0 22.5 0.00 0.00 0.00 77 1024.9
20180116052418 15 49 4.8 16.1 0.00 0.00 0.00 89 1025.0
20180116051439 15 0 6.4 16.1 0.00 0.00 0.00 91 1025.1
20180116050407 14 5 6.4 17.7 0.00 0.00 0.00 90 1025.1
20180116045354 13 346 11.3 17.7 0.00 0.00 0.00 90 1025.1
20180116044335 13 347 9.7 17.7 0.00 0.00 0.00 89 1025.4
20180116043314 13 347 11.3 19.3 0.00 0.00 0.00 89 1025.5
20180116042322 13 348 11.3 19.3 0.00 0.00 0.00 89 1025.5
20180116041326 13 350 11.3 19.3 0.00 0.00 0.00 89 1025.6
20180116040257 13 349 12.9 22.5 0.00 0.00 0.00 88 1025.7
20180116035240 13 338 14.5 22.5 0.00 0.00 0.00 88 1025.7
20180116034245 13 343 14.5 25.7 0.00 0.00 0.00 88 1025.8
20180116033223 13 326 14.5 29.0 0.00 0.00 0.00 87 1025.8
20180116032216 13 351 16.1 29.0 0.00 0.00 0.00 87 1025.8
20180116031210 13 355 17.7 25.7 0.00 0.00 0.00 86 1025.9
20180116030229 13 349 17.7 27.4 0.00 0.00 0.00 86 1025.9
20180116025232 13 348 16.1 27.4 0.00 0.00 0.00 86 1026.0
20180116024201 13 348 16.1 27.4 0.00 0.00 0.00 85 1026.0
20180116023158 13 344 16.1 27.4 0.00 0.00 0.00 85 1025.8
20180116022146 13 336 17.7 27.4 0.00 0.00 0.00 84 1025.8
20180116021123 13 11 16.1 27.4 0.00 0.00 0.00 84 1025.8
20180116020105 13 5 17.7 30.6 0.00 0.00 0.00 83 1025.8
20180116015033 13 5 17.7 30.6 0.00 0.00 0.00 83 1025.7
20180116014046 13 355 17.7 29.0 0.00 0.00 0.00 82 1025.6
20180116013027 13 344 19.3 29.0 0.00 0.00 0.00 82 1025.5
20180116011957 13 347 17.7 29.0 0.00 0.00 0.00 82 1025.4
20180116010922 13 338 19.3 27.4 0.00 0.00 0.00 81 1025.4
20180116005940 13 355 17.7 25.7 0.00 0.00 0.00 80 1025.3
20180116004932 13 336 16.1 27.4 0.00 0.00 0.00 80 1025.4
20180116003926 13 340 19.3 29.0 0.00 0.00 0.00 79 1025.3
20180116002850 13 342 19.3 30.6 0.00 0.00 0.00 79 1025.3
20180116001822 13 336 17.7 30.6 0.00 0.00 0.00 78 1025.3
20180116000802 13 317 19.3 30.6 0.00 0.00 0.00 77 1025.2
20180115235804 13 351 19.3 30.6 0.00 0.00 0.00 77 1025.1
20180115234756 13 355 20.9 35.4 0.00 0.00 0.00 77 1024.9
20180115233812 14 25 22.5 35.4 0.00 0.00 0.00 78 1024.8
20180115232831 14 346 20.9 33.8 0.00 0.00 0.00 79 1024.7
20180115231853 14 350 20.9 41.8 0.00 0.00 0.00 79 1024.7
20180115230821 14 15 24.1 41.8 0.00 0.00 0.00 79 1024.7
20180115225843 14 343 20.9 32.2 0.00 0.00 0.00 79 1024.6
20180115224818 15 338 20.9 41.8 0.00 0.00 0.00 79 1024.6
20180115223745 15 355 25.7 41.8 0.00 0.00 0.00 78 1024.4
20180115222723 15 355 24.1 41.8 0.00 0.00 0.00 78 1024.3
20180115221712 15 342 27.4 41.8 0.00 0.00 0.00 78 1024.3
20180115220702 15 355 24.1 38.6 0.00 0.00 0.00 78 1024.2
20180115215634 15 22 24.1 40.2 0.00 0.00 0.00 78 1024.2
20180115214657 15 5 24.1 40.2 0.00 0.00 0.00 78 1024.1
20180115213703 16 338 24.1 38.6 0.00 0.00 0.00 77 1024.2
20180115212709 16 341 24.1 38.6 0.00 0.00 0.00 77 1024.3
20180115211700 16 343 25.7 37.0 0.00 0.00 0.00 77 1024.2
20180115210630 16 311 24.1 41.8 0.00 0.00 0.00 75 1024.3
20180115205635 16 342 25.7 41.8 0.00 0.00 0.00 74 1024.1
20180115204643 16 355 24.1 38.6 0.00 0.00 0.00 74 1023.9
20180115203623 16 333 25.7 40.2 0.00 0.00 0.00 73 1024.0
20180115202620 16 355 24.1 41.8 0.00 0.00 0.00 73 1024.0
20180115201617 16 347 25.7 49.9 0.00 0.00 0.00 72 1023.9
20180115200636 17 9 27.4 49.9 0.00 0.00 0.00 72 1023.7
20180115195635 16 342 27.4 49.9 0.00 0.00 0.00 72 1023.7
20180115194624 16 331 27.4 41.8 0.00 0.00 0.00 72 1023.6
20180115193633 16 9 24.1 43.5 0.00 0.00 0.00 72 1023.7
20180115192627 16 331 24.1 46.7 0.00 0.00 0.00 73 1023.7
20180115191633 16 350 27.4 46.7 0.00 0.00 0.00 74 1023.9
20180115190614 16 342 25.7 38.6 0.00 0.00 0.00 76 1023.9
20180115185614 16 349 24.1 40.2 0.00 0.00 0.00 77 1023.9
20180115184549 16 340 25.7 41.8 0.00 0.00 0.00 76 1023.9
20180115183516 16 5 27.4 43.5 0.00 0.00 0.00 76 1024.0
20180115182503 16 0 25.7 43.5 0.00 0.00 0.00 75 1024.2
20180115181452 16 355 27.4 43.5 0.00 0.00 0.00 76 1024.5
20180115180444 16 344 25.7 43.5 0.00 0.00 0.00 75 1024.6
20180115175437 16 340 27.4 41.8 0.00 0.00 0.00 77 1024.8
20180115174413 16 0 25.7 41.8 0.00 0.00 0.00 77 1025.1
20180115173353 16 331 25.7 45.1 0.00 0.00 0.00 75 1025.2
20180115172332 16 334 25.7 45.1 0.00 0.00 0.00 75 1025.3
20180115171328 17 348 29.0 41.8 0.00 0.00 0.00 73 1025.3
20180115170257 16 344 29.0 45.1 0.00 0.00 0.00 75 1025.6